FANG11 LCRA-EGVA

Flight info

Callsign FANG11
Flight time N/A
Altitude 47000
Route PHA DCT CLD DCT FSK DCT BUI DCT KIS DCT LBL DCT SUL DCT BNE DCT CPT
Aircraft EUFI/M-SDGHITUY/LB1

Departure

Time 2026-04-20 19:53
Airport RAF Akrotiri (LCRA)

Arrival

Time N/A
Airport RAF Fairford (EGVA)
Time Latitude Longitude Altitude Speed Heading
2026-04-20 19:50 34.59137 32.97029 78 ft 0 kts 184°
2026-04-20 19:51 34.59137 32.97034 78 ft 0 kts 72°
2026-04-20 19:51 34.59187 32.97057 78 ft 10 kts 47°
2026-04-20 19:52 34.59195 32.97136 78 ft 16 kts 85°
2026-04-20 19:52 34.59251 32.97311 78 ft 25 kts 53°
2026-04-20 19:52 34.59384 32.97361 80 ft 18 kts 31°
2026-04-20 19:52 34.59383 32.97462 72 ft 11 kts 107°
2026-04-20 19:53 34.59363 32.97540 79 ft 8 kts 112°
2026-04-20 19:53 34.59346 32.97601 82 ft 46 kts 109°
2026-04-20 19:53 34.59010 32.98824 117 ft 253 kts 109°
2026-04-20 19:53 34.58365 33.01209 712 ft 274 kts 110°
2026-04-20 19:54 34.57417 33.03292 3097 ft 302 kts 159°
2026-04-20 19:54 34.56259 33.01994 3906 ft 301 kts 293°
2026-04-20 19:54 34.57106 32.99581 5203 ft 310 kts 293°
2026-04-20 19:54 34.57923 32.97132 6359 ft 317 kts 291°
2026-04-20 19:55 34.58458 32.95469 7121 ft 319 kts 292°
2026-04-20 19:55 34.59266 32.92964 8303 ft 322 kts 292°
2026-04-20 19:55 34.60116 32.90337 9556 ft 372 kts 292°
2026-04-20 19:55 34.61558 32.85906 11141 ft 439 kts 292°
2026-04-20 19:56 34.62323 32.83565 11935 ft 443 kts 292°
2026-04-20 19:56 34.63465 32.80079 13139 ft 451 kts 292°
2026-04-20 19:56 34.64638 32.76519 14331 ft 459 kts 292°
2026-04-20 19:56 34.65848 32.72868 15285 ft 478 kts 292°
2026-04-20 19:57 34.67091 32.69140 15172 ft 470 kts 292°
2026-04-20 19:57 34.68324 32.65460 15187 ft 472 kts 292°
2026-04-20 19:57 34.69570 32.61755 15199 ft 472 kts 292°
2026-04-20 19:57 34.70680 32.58017 15206 ft 469 kts 283°
2026-04-20 19:58 34.71016 32.54060 15222 ft 474 kts 268°
2026-04-20 19:58 34.70417 32.50118 15223 ft 475 kts 252°
2026-04-20 19:58 34.68869 32.46608 15247 ft 481 kts 234°
2026-04-20 19:58 34.66396 32.43842 15299 ft 488 kts 214°
2026-04-20 19:59 34.63233 32.42298 15330 ft 496 kts 192°
2026-04-20 19:59 34.59815 32.41846 15320 ft 502 kts 189°
2026-04-20 19:59 34.56345 32.41690 15333 ft 501 kts 173°
2026-04-20 19:59 34.53039 32.43102 15302 ft 512 kts 149°
2026-04-20 20:00 34.50498 32.46087 15233 ft 513 kts 122°
2026-04-20 20:00 34.49399 32.50165 15138 ft 515 kts 91°
2026-04-20 20:00 34.50297 32.54232 15280 ft 503 kts 50°
2026-04-20 20:00 34.53108 32.56519 15825 ft 492 kts
2026-04-20 20:01 34.56317 32.55637 15953 ft 484 kts 316°
2026-04-20 20:01 34.57335 32.52051 15828 ft 477 kts 253°
2026-04-20 20:01 34.54926 32.49643 15544 ft 500 kts 180°
2026-04-20 20:01 34.52491 32.52163 14721 ft 510 kts 86°
2026-04-20 20:02 34.53980 32.55950 14544 ft 507 kts 40°
2026-04-20 20:02 34.57090 32.57264 14859 ft 481 kts 349°
2026-04-20 20:02 34.59907 32.55332 14709 ft 472 kts 302°
2026-04-20 20:02 34.61019 32.51611 14562 ft 475 kts 290°
2026-04-20 20:03 34.62273 32.48007 15445 ft 472 kts 295°
2026-04-20 20:03 34.63884 32.44459 16477 ft 478 kts 302°
2026-04-20 20:03 34.65900 32.41198 17540 ft 486 kts 309°
2026-04-20 20:03 34.68440 32.37970 18625 ft 586 kts 315°
2026-04-20 20:04 34.71714 32.34395 19630 ft 688 kts 318°
2026-04-20 20:04 34.75663 32.30522 20665 ft 770 kts 321°
2026-04-20 20:04 34.80167 32.26446 21727 ft 842 kts 323°
2026-04-20 20:04 34.85207 32.22156 22833 ft 920 kts 324°
2026-04-20 20:05 34.90520 32.17849 23879 ft 928 kts 325°
2026-04-20 20:05 34.95996 32.13602 24837 ft 935 kts 326°
2026-04-20 20:05 35.01566 32.09435 25828 ft 943 kts 327°
2026-04-20 20:05 35.07237 32.05324 26855 ft 950 kts 329°
2026-04-20 20:06 35.13037 32.01746 27909 ft 881 kts 335°
2026-04-20 20:06 35.18821 31.99076 29023 ft 907 kts 340°
2026-04-20 20:06 35.24922 31.97237 30138 ft 924 kts 351°
2026-04-20 20:06 35.31419 31.97035 31097 ft 946 kts
2026-04-20 20:07 35.37963 31.98565 32138 ft 968 kts 15°
2026-04-20 20:07 35.44282 32.01719 33267 ft 990 kts 26°
2026-04-20 20:07 35.50174 32.06337 34357 ft 1013 kts 36°
2026-04-20 20:07 35.55385 32.12127 35331 ft 1035 kts 45°
2026-04-20 20:08 35.59831 32.19251 36299 ft 1058 kts 57°
2026-04-20 20:08 35.63129 32.27467 37338 ft 1080 kts 69°
2026-04-20 20:08 35.65187 32.36327 38468 ft 1102 kts 79°
2026-04-20 20:08 35.66062 32.45765 39443 ft 1118 kts 88°
2026-04-20 20:09 35.65758 32.55396 40400 ft 1133 kts 97°
2026-04-20 20:09 35.64337 32.65005 41409 ft 1146 kts 105°
2026-04-20 20:09 35.61903 32.74387 42460 ft 1160 kts 112°
2026-04-20 20:09 35.58594 32.83354 43552 ft 1173 kts 119°
2026-04-20 20:10 35.54437 32.92031 44690 ft 1185 kts 125°
2026-04-20 20:10 35.49543 33.00287 45758 ft 1194 kts 130°
2026-04-20 20:10 35.44062 33.08016 46677 ft 1202 kts 135°
2026-04-20 20:10 35.38126 33.15289 47228 ft 1213 kts 137°
2026-04-20 20:11 35.32341 33.22911 47641 ft 1226 kts 134°
2026-04-20 20:11 35.26156 33.30124 47968 ft 1230 kts 143°
2026-04-20 20:11 35.19316 33.36199 48312 ft 1234 kts 150°
2026-04-20 20:12 35.03861 33.45469 48311 ft 1243 kts 163°
2026-04-20 20:12 34.95592 33.48660 47708 ft 1250 kts 167°
2026-04-20 20:12 34.87137 33.50906 47034 ft 1232 kts 173°
2026-04-20 20:13 34.70220 33.51994 47053 ft 1219 kts 187°
2026-04-20 20:13 34.61833 33.50612 47079 ft 1213 kts 194°
2026-04-20 20:13 34.53731 33.48094 47077 ft 1166 kts 201°
2026-04-20 20:13 34.46520 33.44376 47060 ft 1100 kts 211°
2026-04-20 20:14 34.34483 33.33062 47130 ft 1096 kts 229°
2026-04-20 20:14 34.25795 33.18187 47127 ft 1087 kts 245°
2026-04-20 20:15 34.21197 33.00901 47137 ft 1081 kts 262°
2026-04-20 20:15 34.20746 32.82752 47128 ft 1081 kts 275°
2026-04-20 20:16 34.23796 32.65043 47112 ft 1083 kts 287°
2026-04-20 20:16 34.25402 32.59548 47113 ft 1077 kts 290°
2026-04-20 20:17 34.28349 32.51528 47095 ft 1019 kts 296°
2026-04-20 20:17 34.31047 32.45624 47098 ft 1026 kts 300°
2026-04-20 20:18 34.59137 32.97029 78 ft 0 kts 184°